Find Starlink 31854

NORAD ID: 59671 Int'l Des: 2024-084 Owner: SPXS Country: US Constellation: starlink operational
LEOCIRCULAR

实时位置

正在加载3D地球...

关于 Starlink 31854

正在加载描述...

即将过境

Passes for default location (London). Set your location on the main map for personalized predictions.

高度历史

Loading altitude history...

两行轨道根数

1 59671U 24084T 26132.00767471 .00008794 00000-0 32904-3 0 9991
2 59671 43.0006 11.1826 0001376 270.3352 89.7342 15.27546958114417
Epoch: May 12, 2026 • Age: 15 hours

当前状态

高度 485.2 km
速度 7.62 km/s
星下点 -12.75°S, 103.61°E
发射日期 May 6, 2024
运行时间 2 years
类型 internet

技术详情

分类 Payload
质量 730.00 kg
干质量 700.00 kg
总质量 730.00 kg
长度 0.30 m
直径 4.10 m
跨度 29.00 m
形状 Box + pan
制造商 SPXS
平台类型 Starlink V2M
阶段状态 In Orbit
所有者/国家 SPXS/US

Most Searched